$Date,$Time,DM0201B,DM0203B,DM0205B,DM0207B,DM0209B
01/05/99,00:00:01,583,180,-7,194,954
01/05/99,00:05:01,559,176,-7,183,954
01/05/99,00:10:01,591,166,-8,186,954
01/05/99,00:15:01,484,177,-7,187,954
01/05/99,00:20:01,589,174,-7,183,954
01/05/99,00:25:01,520,174,-7,174,954
01/05/99,00:30:01,573,174,-7,163,954
01/05/99,00:35:01,595,174,-8,144,954
01/05/99,00:40:01,513,174,-8,131,954
01/05/99,00:45:01,521,175,-8,101,954
01/05/99,00:50:01,521,175,-8,126,954
01/05/99,00:55:01,584,175,-8,100,954
01/05/99,01:00:01,486,175,-8,135,954
01/05/99,01:05:01,565,175,-8,144,954
01/05/99,01:10:01,569,175,-8,120,954
01/05/99,01:15:01,548,175,-8,123,954
01/05/99,01:20:01,588,177,-8,142,954
01/05/99,01:25:01,586,177,-8,153,954
01/05/99,01:30:01,602,177,-8,161,954
01/05/99,01:35:01,614,167,-8,147,954
01/05/99,01:40:01,578,167,-8,169,954
01/05/99,01:45:01,601,167,-8,167,954
01/05/99,01:50:01,548,167,-8,168,954
01/05/99,01:55:01,593,167,-8,162,954
01/05/99,02:00:01,617,167,-8,190,954
01/05/99,02:05:01,608,167,-8,192,954
01/05/99,02:10:01,606,167,-8,191,952
01/05/99,02:15:01,681,167,-8,193,952
01/05/99,02:20:01,604,167,-8,165,952
01/05/99,02:25:01,653,167,-8,146,954
01/05/99,02:30:01,631,167,-8,158,954
01/05/99,02:35:01,636,167,-8,143,954
01/05/99,02:40:01,655,167,-8,141,954
01/05/99,02:45:01,581,167,-8,151,954
01/05/99,02:50:01,599,167,-8,171,954
01/05/99,02:55:01,624,167,-8,163,954
01/05/99,03:00:01,603,167,-8,176,954
01/05/99,03:05:01,629,167,-8,192,954
01/05/99,03:10:01,663,167,-8,160,954
01/05/99,03:15:01,600,167,-8,178,954
01/05/99,03:20:01,625,167,-7,201,954
01/05/99,03:25:01,657,167,-7,192,954
01/05/99,03:30:01,610,177,-8,222,954
01/05/99,03:35:01,554,175,-8,132,954
01/05/99,03:40:01,518,175,-8,153,954
01/05/99,03:45:01,651,175,-8,204,954
01/05/99,03:50:01,577,162,-7,146,954
01/05/99,03:55:01,560,164,-7,156,954
01/05/99,04:00:01,599,170,-7,121,954
01/05/99,04:05:01,549,163,-7,165,954
01/05/99,04:10:01,566,173,-7,172,954
01/05/99,04:15:01,646,163,-7,207,954
01/05/99,04:20:01,562,172,-7,180,954
01/05/99,04:25:01,644,172,-7,174,954
01/05/99,04:30:01,585,172,-7,196,954
01/05/99,04:35:01,589,172,-7,171,954
01/05/99,04:40:01,522,169,-8,117,954
01/05/99,04:45:01,618,179,-8,168,956
01/05/99,04:50:01,610,179,-8,137,954
01/05/99,04:55:01,504,172,-8,125,956
01/05/99,05:00:01,575,172,-8,153,956
01/05/99,05:05:01,494,172,-8,97,956
01/05/99,05:10:01,529,172,-8,105,956
01/05/99,05:15:01,483,172,-8,122,956
01/05/99,05:20:01,549,172,-8,123,956
01/05/99,05:25:01,587,172,-8,117,956
01/05/99,05:30:01,563,172,-8,114,956
01/05/99,05:35:01,525,182,-8,111,956
01/05/99,05:40:01,537,171,-8,108,956
01/05/99,05:45:01,535,171,-8,144,956
01/05/99,05:50:01,487,171,-8,150,956
01/05/99,05:55:01,510,171,-8,106,956
01/05/99,06:00:01,484,173,-8,125,956
01/05/99,06:05:01,516,173,-8,123,956
01/05/99,06:10:01,463,163,-8,98,956
01/05/99,06:15:01,498,163,-8,133,956
01/05/99,06:20:01,474,163,-8,141,956
01/05/99,06:25:01,527,163,-8,168,956
01/05/99,06:30:01,505,163,-8,177,956
01/05/99,06:35:01,472,152,-8,171,956
01/05/99,06:40:01,472,163,-8,162,956
01/05/99,06:45:01,455,153,-8,154,956
01/05/99,06:50:01,514,164,-8,150,956
01/05/99,06:55:01,485,164,-8,148,956
01/05/99,07:00:01,483,166,-8,142,956
01/05/99,07:05:01,519,166,-8,135,956
01/05/99,07:10:01,502,166,-8,133,956
01/05/99,07:15:01,490,166,-8,138,956
01/05/99,07:20:01,450,166,-8,122,956
01/05/99,07:25:01,442,166,-8,119,956
01/05/99,07:30:01,449,166,-8,111,956
01/05/99,07:35:01,493,178,-8,124,958
01/05/99,07:40:01,509,166,-8,96,958
01/05/99,07:45:01,497,166,-8,96,958
01/05/99,07:50:01,435,164,-8,90,958
01/05/99,07:55:01,496,167,-8,97,958
01/05/99,08:00:01,475,167,-8,71,958
01/05/99,08:05:01,393,166,-8,93,958
01/05/99,08:10:01,454,166,-8,123,958
01/05/99,08:15:01,413,166,-8,127,958
01/05/99,08:20:01,439,155,-8,94,958
01/05/99,08:25:01,420,165,-8,81,958
01/05/99,08:30:01,355,158,-8,99,958
01/05/99,08:35:01,417,165,-8,108,958
01/05/99,08:40:01,351,157,-8,111,958
01/05/99,08:45:01,426,158,-8,110,958
01/05/99,08:50:01,334,161,-8,102,958
01/05/99,08:55:01,345,168,-8,106,958
01/05/99,09:00:01,362,157,-8,98,958
01/05/99,09:05:01,385,165,-8,104,958
01/05/99,09:10:01,376,165,-8,85,958
01/05/99,09:15:01,375,165,-8,70,958
01/05/99,09:20:01,301,163,-8,54,958
01/05/99,09:25:01,280,163,-8,59,958
01/05/99,09:30:01,359,162,-8,49,958
01/05/99,09:35:01,411,172,-8,51,958
01/05/99,09:40:01,390,171,-8,60,958
01/05/99,09:45:01,357,178,-8,54,958
01/05/99,09:50:01,326,161,-8,65,958
01/05/99,09:55:01,298,162,-8,57,958
01/05/99,10:00:01,249,153,-8,61,958
01/05/99,10:05:01,306,160,-8,69,958
01/05/99,10:10:01,421,164,-8,95,958
01/05/99,10:15:01,397,156,-8,87,958
01/05/99,10:20:01,362,161,-8,78,958
01/05/99,10:25:01,357,161,-8,82,958
01/05/99,10:30:01,404,163,-8,70,958
01/05/99,10:35:01,346,154,-8,78,958
01/05/99,10:40:01,415,158,-8,90,958
01/05/99,10:45:01,441,157,-8,95,958
01/05/99,10:50:01,378,167,-8,84,958
01/05/99,10:55:01,384,167,-8,102,958
01/05/99,11:00:01,407,167,-8,107,958
01/05/99,11:05:01,326,157,-8,150,960
01/05/99,11:10:01,322,168,-8,198,960
01/05/99,11:15:01,397,157,-8,115,960
01/05/99,11:20:01,398,169,-8,109,960
01/05/99,11:25:01,386,169,-8,105,960
01/05/99,11:30:01,483,169,-8,171,960
01/05/99,11:35:01,422,156,-8,158,960
01/05/99,11:40:01,421,156,-8,90,960
01/05/99,11:45:01,443,156,-8,90,960
01/05/99,11:50:01,424,170,-8,112,960
01/05/99,11:55:01,408,159,-8,112,960
01/05/99,12:00:01,381,162,-8,138,960
01/05/99,12:05:01,402,162,-8,194,960
01/05/99,12:10:01,389,162,-8,87,960
01/05/99,12:15:01,347,162,-8,73,960
01/05/99,12:20:01,416,163,-8,189,960
01/05/99,12:25:01,416,163,-8,86,960
01/05/99,12:30:01,383,172,-8,86,960
01/05/99,12:35:01,386,172,-8,199,960
01/05/99,12:40:01,387,172,-8,194,960
01/05/99,12:45:01,365,172,-8,164,960
01/05/99,12:50:01,392,172,-8,83,960
01/05/99,12:55:01,366,162,-8,161,960
01/05/99,13:00:01,428,174,-8,192,960
01/05/99,13:05:01,406,164,-8,203,960
01/05/99,13:10:01,445,171,-8,242,960
01/05/99,13:15:01,445,161,-8,226,960
01/05/99,13:20:01,393,173,-8,226,960
01/05/99,13:25:01,472,175,-8,137,960
01/05/99,13:30:01,394,174,-8,231,960
01/05/99,13:35:01,425,174,-8,201,960
01/05/99,13:40:01,403,163,-8,279,960
01/05/99,13:45:01,373,173,-8,128,960
01/05/99,13:50:01,346,176,-8,252,960
01/05/99,13:55:01,403,181,-8,84,960
01/05/99,14:00:01,357,170,-8,142,960
01/05/99,14:05:01,374,181,-8,189,960
01/05/99,14:10:01,410,182,-8,96,960
01/05/99,14:15:01,331,169,-8,95,960
01/05/99,14:20:01,354,170,-8,102,960
01/05/99,14:25:01,399,169,-8,92,960
01/05/99,14:30:01,396,163,-8,126,960
01/05/99,14:35:01,416,175,-8,202,960
01/05/99,14:40:01,364,175,-8,134,960
01/05/99,14:45:01,438,175,-8,174,960
01/05/99,14:50:01,427,175,-8,105,960
01/05/99,14:55:01,433,162,-8,322,960
01/05/99,15:00:01,413,165,-8,346,960
01/05/99,15:05:01,424,165,-8,348,960
01/05/99,15:10:01,416,165,-8,368,960
01/05/99,15:15:01,417,165,-7,348,960
01/05/99,15:20:01,434,175,-8,347,960
01/05/99,15:25:01,421,165,-8,285,960
01/05/99,15:30:01,439,165,-8,301,960
01/05/99,15:35:01,405,175,-8,396,960
01/05/99,15:40:01,361,166,-8,260,960
01/05/99,15:45:01,392,166,-7,395,960
01/05/99,15:50:01,355,175,-8,168,960
01/05/99,15:55:01,404,174,-8,367,960
01/05/99,16:00:01,329,162,-8,267,960
01/05/99,16:05:01,372,173,-8,332,960
01/05/99,16:10:01,339,163,-8,316,960
01/05/99,16:15:01,322,163,-8,290,960
01/05/99,16:20:01,359,175,-8,306,960
01/05/99,16:25:01,376,176,-8,291,960
01/05/99,16:30:01,368,161,-8,131,960
01/05/99,16:35:01,305,172,-8,94,960
01/05/99,16:40:01,333,161,-8,251,960
01/05/99,16:45:01,338,161,-8,346,960
01/05/99,16:50:01,281,160,-8,372,960
01/05/99,16:55:01,334,161,-8,195,960
01/05/99,17:00:01,321,163,-8,370,960
01/05/99,17:05:01,280,163,-8,165,960
01/05/99,17:10:01,346,163,-8,103,960
01/05/99,17:15:01,304,164,-8,103,960
01/05/99,17:20:01,375,164,-8,131,960
01/05/99,17:25:01,323,162,-8,191,960
01/05/99,17:30:01,278,165,-8,158,960
01/05/99,17:35:01,400,163,-8,141,960
01/05/99,17:40:01,347,163,-8,147,960
01/05/99,17:45:01,349,153,-8,182,960
01/05/99,17:50:01,331,155,-8,179,960
01/05/99,17:55:01,315,160,-8,136,960
01/05/99,18:00:01,272,171,-8,167,960
01/05/99,18:05:01,331,155,-8,147,960
01/05/99,18:10:01,417,170,-8,155,960
01/05/99,18:15:01,400,162,-8,156,960
01/05/99,18:20:01,371,162,-8,207,960
01/05/99,18:25:01,384,167,-8,372,960
01/05/99,18:30:01,335,157,-8,423,960
01/05/99,18:35:01,414,160,-7,495,960
01/05/99,18:40:01,384,162,-7,270,960
01/05/99,18:45:01,356,164,-7,358,960
01/05/99,18:50:01,285,164,-7,332,960
01/05/99,18:55:01,275,164,-7,334,960
01/05/99,19:00:01,282,164,-7,300,960
01/05/99,19:05:01,313,172,-7,263,960
01/05/99,19:10:01,348,159,-7,257,960
01/05/99,19:15:01,322,159,-7,270,960
01/05/99,19:20:01,388,159,-7,313,960
01/05/99,19:25:01,401,171,-7,419,960
01/05/99,19:30:01,379,160,-7,408,960
01/05/99,19:35:01,304,171,-7,384,960
01/05/99,19:40:01,363,172,-7,388,960
01/05/99,19:45:01,281,172,-7,433,960
01/05/99,19:50:01,317,166,-7,426,960
01/05/99,19:55:01,340,172,-7,397,960
01/05/99,20:00:01,251,175,-7,411,960
01/05/99,20:05:01,296,163,-7,407,960
01/05/99,20:10:01,261,173,-7,341,960
01/05/99,20:15:01,255,176,-7,391,960
01/05/99,20:20:01,324,173,-7,424,960
01/05/99,20:25:01,287,173,-7,464,960
01/05/99,20:30:01,211,174,-6,485,960
01/05/99,20:35:01,193,172,-6,433,960
01/05/99,20:40:01,258,179,-6,495,960
01/05/99,20:45:01,240,180,-7,420,960
01/05/99,20:50:01,270,166,-7,388,960
01/05/99,20:55:01,161,190,-7,419,962
01/05/99,21:00:01,249,174,-7,433,962
01/05/99,21:05:01,291,178,-7,399,962
01/05/99,21:10:01,256,178,-7,378,962
01/05/99,21:15:01,151,177,-7,394,962
01/05/99,21:20:01,210,174,-6,472,962
01/05/99,21:25:01,197,158,-6,375,962
01/05/99,21:30:01,204,173,-6,352,962
01/05/99,21:35:01,182,175,-6,370,962
01/05/99,21:40:01,186,182,-6,318,962
01/05/99,21:45:01,196,172,-6,332,962
01/05/99,21:50:01,222,171,-6,375,962
01/05/99,21:55:01,178,182,-6,396,962
01/05/99,22:00:01,136,175,-6,517,962
01/05/99,22:05:01,151,162,-5,546,962
01/05/99,22:10:01,126,167,-5,656,962
01/05/99,22:15:01,130,174,-5,631,962
01/05/99,22:20:01,153,166,-5,554,962
01/05/99,22:25:01,149,159,-5,442,962
01/05/99,22:30:01,199,171,-5,432,962
01/05/99,22:35:01,208,173,-5,434,962
01/05/99,22:40:01,152,169,-6,444,962
01/05/99,22:45:01,149,175,-6,480,962
01/05/99,22:50:01,150,178,-5,411,962
01/05/99,22:55:01,159,164,-6,468,962
01/05/99,23:00:01,153,167,-6,458,962
01/05/99,23:05:01,144,175,-6,425,962
01/05/99,23:10:01,127,162,-6,434,962
01/05/99,23:15:01,181,170,-6,408,962
01/05/99,23:20:01,183,169,-6,406,962
01/05/99,23:25:01,181,160,-6,388,962
01/05/99,23:30:01,105,153,-5,363,962
01/05/99,23:35:01,111,186,-5,340,962
01/05/99,23:40:01,149,173,-6,342,962
01/05/99,23:45:01,154,175,-6,383,962
01/05/99,23:50:01,151,174,-6,456,962
01/05/99,23:55:01,105,186,-6,420,962
01/06/99,00:00:01,141,166,-6,384,962
